"read_dt","SO2 (ppb)","flags","PMT voltage (V)","lamp voltage (V)","lamp intensity (Hz)","internal temp (C)","react chamber temp (C)","sample flow (l/min)","pres (mmHg)","SO2 bkg (ppb)","SO2 coefficient"
2016-09-11 00:00:00,1892E-3,5C000400,-0724,0824,12283,018.3,045.2,0.272,767.3,01.15,0.508
2016-09-11 00:01:00,1933E-3,5C000400,-0724,0822,12305,018.3,045.2,0.271,767.3,01.15,0.508
2016-09-11 00:02:00,1816E-3,5C000400,-0724,0824,12273,018.3,045.3,0.271,767.3,01.15,0.508
2016-09-11 00:03:00,1844E-3,5C000400,-0724,0824,12296,018.4,045.3,0.271,767.3,01.15,0.508
2016-09-11 00:04:00,1874E-3,5C000400,-0724,0824,12095,018.3,045.2,0.271,767.3,01.15,0.508
2016-09-11 00:05:00,1873E-3,5C000400,-0724,0824,12254,018.3,045.2,0.271,767.3,01.15,0.508
2016-09-11 00:06:00,1867E-3,5C000400,-0724,0823,12242,018.4,045.3,0.271,767.3,01.15,0.508
2016-09-11 00:07:00,1865E-3,5C000400,-0724,0823,12296,018.4,045.3,0.271,767.3,01.15,0.508
2016-09-11 00:08:00,1945E-3,5C000400,-0724,0823,12297,018.4,045.3,0.271,767.3,01.15,0.508
2016-09-11 00:09:00,1856E-3,5C000400,-0724,0824,12346,018.3,045.2,0.271,767.3,01.15,0.508
2016-09-11 00:10:00,1950E-3,5C000400,-0724,0824,12261,018.4,045.2,0.271,767.3,01.15,0.508
2016-09-11 00:11:00,1949E-3,5C000400,-0724,0824,12335,018.4,045.2,0.271,767.3,01.15,0.508
2016-09-11 00:12:00,1929E-3,5C000400,-0724,0823,12313,018.4,045.2,0.271,767.3,01.15,0.508
2016-09-11 00:13:00,1966E-3,5C000400,-0724,0824,12306,018.3,045.3,0.271,767.3,01.15,0.508
2016-09-11 00:14:00,1869E-3,5C000400,-0724,0824,12300,018.3,045.2,0.271,767.3,01.15,0.508
2016-09-11 00:15:00,1921E-3,5C000400,-0724,0824,12182,018.3,045.2,0.271,767.3,01.15,0.508
2016-09-11 00:16:00,1905E-3,5C000400,-0724,0823,12252,018.3,045.2,0.271,767.3,01.15,0.508
2016-09-11 00:17:00,1761E-3,5C000400,-0724,0825,12339,018.3,045.3,0.271,767.3,01.15,0.508
2016-09-11 00:18:00,1931E-3,5C000400,-0724,0822,12333,018.3,045.3,0.271,767.3,01.15,0.508
2016-09-11 00:19:00,1898E-3,5C000400,-0724,0823,12364,018.4,045.3,0.271,767.3,01.15,0.508
2016-09-11 00:20:00,1834E-3,5C000400,-0724,0824,12258,018.3,045.2,0.271,767.3,01.15,0.508
2016-09-11 00:21:00,1866E-3,5C000400,-0724,0822,12290,018.3,045.2,0.271,767.2,01.15,0.508
2016-09-11 00:22:00,1854E-3,5C000400,-0724,0823,12209,018.3,045.3,0.271,767.3,01.15,0.508
2016-09-11 00:23:00,1884E-3,5C000400,-0724,0823,12319,018.4,045.2,0.271,767.3,01.15,0.508
2016-09-11 00:24:00,1909E-3,5C000400,-0724,0824,12296,018.3,045.2,0.271,767.3,01.15,0.508
2016-09-11 00:25:00,1967E-3,5C000400,-0724,0824,12061,018.4,045.2,0.271,767.3,01.15,0.508
2016-09-11 00:26:00,1891E-3,5C000400,-0724,0824,12279,018.3,045.3,0.272,767.3,01.15,0.508
2016-09-11 00:27:00,1900E-3,5C000400,-0724,0824,12238,018.3,045.2,0.271,767.3,01.15,0.508
2016-09-11 00:28:00,1886E-3,5C000400,-0724,0823,12320,018.3,045.3,0.272,767.2,01.15,0.508
2016-09-11 00:29:00,1991E-3,5C000400,-0724,0822,12179,018.3,045.2,0.271,767.3,01.15,0.508
2016-09-11 00:30:00,1935E-3,5C000400,-0724,0825,12423,018.4,045.2,0.271,767.2,01.15,0.508
2016-09-11 00:31:00,1901E-3,5C000400,-0724,0824,12346,018.4,045.2,0.271,767.3,01.15,0.508
2016-09-11 00:32:00,1936E-3,5C000400,-0724,0822,12360,018.4,045.3,0.271,767.2,01.15,0.508
2016-09-11 00:33:00,1985E-3,5C000400,-0724,0823,12194,018.4,045.3,0.271,767.2,01.15,0.508
2016-09-11 00:34:00,1964E-3,5C000400,-0724,0823,12323,018.4,045.3,0.271,767.2,01.15,0.508
2016-09-11 00:35:00,2178E-3,5C000400,-0724,0824,12418,018.4,045.2,0.271,767.2,01.15,0.508
2016-09-11 00:36:00,1889E-3,5C000400,-0724,0824,12366,018.4,045.3,0.271,767.2,01.15,0.508
2016-09-11 00:37:00,2057E-3,5C000400,-0724,0825,12314,018.3,045.2,0.271,767.2,01.15,0.508
2016-09-11 00:38:00,1932E-3,5C000400,-0724,0823,12208,018.3,045.2,0.271,767.2,01.15,0.508
2016-09-11 00:39:00,1881E-3,5C000400,-0724,0823,12370,018.4,045.2,0.271,767.2,01.15,0.508
2016-09-11 00:40:00,1870E-3,5C000400,-0724,0823,12160,018.4,045.3,0.271,767.2,01.15,0.508
2016-09-11 00:41:00,1896E-3,5C000400,-0724,0822,12252,018.3,045.3,0.271,767.2,01.15,0.508
2016-09-11 00:42:00,1874E-3,5C000400,-0724,0823,12240,018.4,045.2,0.271,767.3,01.15,0.508
2016-09-11 00:43:00,1975E-3,5C000400,-0724,0823,12274,018.4,045.2,0.271,767.2,01.15,0.508
2016-09-11 00:44:00,1796E-3,5C000400,-0724,0824,12278,018.4,045.3,0.271,767.2,01.15,0.508
2016-09-11 00:45:00,1841E-3,5C000400,-0724,0823,12290,018.4,045.3,0.271,767.3,01.15,0.508
2016-09-11 00:46:00,1740E-3,5C000400,-0724,0824,12299,018.4,045.3,0.271,767.3,01.15,0.508
2016-09-11 00:47:00,1875E-3,5C000400,-0724,0825,12352,018.4,045.3,0.271,767.2,01.15,0.508
2016-09-11 00:48:00,1965E-3,5C000400,-0724,0824,12318,018.3,045.3,0.271,767.3,01.15,0.508
2016-09-11 00:49:00,1940E-3,5C000400,-0724,0824,12207,018.3,045.2,0.271,767.3,01.15,0.508
2016-09-11 00:50:00,1834E-3,5C000400,-0724,0824,12333,018.4,045.2,0.271,767.3,01.15,0.508
2016-09-11 00:51:00,1806E-3,5C000400,-0724,0823,12378,018.4,045.2,0.271,767.4,01.15,0.508
2016-09-11 00:52:00,1919E-3,5C000400,-0724,0823,12247,018.4,045.2,0.271,767.4,01.15,0.508
2016-09-11 00:53:00,1829E-3,5C000400,-0724,0824,12362,018.3,045.2,0.271,767.3,01.15,0.508
2016-09-11 00:54:00,1948E-3,5C000400,-0724,0824,12147,018.4,045.2,0.271,767.4,01.15,0.508
2016-09-11 00:55:00,1818E-3,5C000400,-0724,0823,12347,018.4,045.2,0.271,767.4,01.15,0.508
2016-09-11 00:56:00,1924E-3,5C000400,-0724,0824,12305,018.4,045.2,0.271,767.4,01.15,0.508
2016-09-11 00:57:00,1865E-3,5C000400,-0724,0824,12101,018.4,045.3,0.271,767.3,01.15,0.508
2016-09-11 00:58:00,1883E-3,5C000400,-0724,0824,12216,018.4,045.3,0.271,767.3,01.15,0.508
2016-09-11 00:59:00,1894E-3,5C000400,-0724,0823,12321,018.4,045.3,0.271,767.3,01.15,0.508
2016-09-11 01:00:00,1807E-3,5C000400,-0724,0823,12210,018.4,045.3,0.271,767.3,01.15,0.508
2016-09-11 01:01:00,1941E-3,5C000400,-0724,0823,12346,018.4,045.2,0.271,767.3,01.15,0.508
2016-09-11 01:02:00,1791E-3,5C000400,-0724,0824,12333,018.4,045.2,0.271,767.2,01.15,0.508
2016-09-11 01:03:00,1897E-3,5C000400,-0724,0824,12348,018.4,045.3,0.271,767.2,01.15,0.508
2016-09-11 01:04:00,1957E-3,5C000400,-0724,0823,12115,018.4,045.2,0.271,767.2,01.15,0.508
2016-09-11 01:05:00,1936E-3,5C000400,-0724,0824,12472,018.4,045.2,0.271,767.3,01.15,0.508
2016-09-11 01:06:00,1904E-3,5C000400,-0724,0823,12194,018.4,045.2,0.271,767.3,01.15,0.508
2016-09-11 01:07:00,1904E-3,5C000400,-0724,0824,12236,018.4,045.3,0.271,767.3,01.15,0.508
2016-09-11 01:08:00,1829E-3,5C000400,-0724,0824,12216,018.4,045.3,0.271,767.3,01.15,0.508
2016-09-11 01:09:00,1872E-3,5C000400,-0724,0824,12172,018.4,045.3,0.271,767.3,01.15,0.508
2016-09-11 01:10:00,1823E-3,5C000400,-0724,0824,12318,018.4,045.3,0.271,767.3,01.15,0.508
2016-09-11 01:11:00,1846E-3,5C000400,-0724,0824,12167,018.4,045.3,0.271,767.3,01.15,0.508
2016-09-11 01:12:00,1970E-3,5C000400,-0724,0824,12226,018.5,045.3,0.271,767.2,01.15,0.508
2016-09-11 01:13:00,1893E-3,5C000400,-0724,0825,12396,018.5,045.2,0.271,767.2,01.15,0.508
2016-09-11 01:14:00,1871E-3,5C000400,-0724,0823,12221,018.4,045.2,0.271,767.2,01.15,0.508
2016-09-11 01:15:00,1875E-3,5C000400,-0724,0823,12314,018.5,045.2,0.271,767.2,01.15,0.508
2016-09-11 01:16:00,1952E-3,5C000400,-0724,0823,12201,018.5,045.3,0.271,767.2,01.15,0.508
2016-09-11 01:17:00,1801E-3,5C000400,-0724,0823,11982,018.5,045.3,0.271,767.2,01.15,0.508
2016-09-11 01:18:00,1890E-3,5C000400,-0724,0823,12287,018.5,045.2,0.271,767.2,01.15,0.508
2016-09-11 01:19:00,1913E-3,5C000400,-0724,0824,12236,018.5,045.3,0.271,767.2,01.15,0.508
2016-09-11 01:20:00,1950E-3,5C000400,-0724,0824,12330,018.5,045.3,0.271,767.2,01.15,0.508
2016-09-11 01:21:00,1831E-3,5C000400,-0724,0824,12317,018.5,045.3,0.271,767.2,01.15,0.508
2016-09-11 01:22:00,1860E-3,5C000400,-0724,0825,12281,018.5,045.3,0.271,767.2,01.15,0.508
2016-09-11 01:23:00,1864E-3,5C000400,-0724,0824,12057,018.5,045.3,0.271,767.2,01.15,0.508
2016-09-11 01:24:00,1880E-3,5C000400,-0724,0824,12333,018.5,045.3,0.271,767.1,01.15,0.508
2016-09-11 01:25:00,1924E-3,5C000400,-0724,0824,12222,018.4,045.3,0.271,767.1,01.15,0.508
2016-09-11 01:26:00,1882E-3,5C000400,-0724,0824,12179,018.5,045.3,0.271,767.0,01.15,0.508
2016-09-11 01:27:00,1876E-3,5C000400,-0724,0823,12163,018.5,045.3,0.271,767.1,01.15,0.508
2016-09-11 01:28:00,1901E-3,5C000400,-0724,0824,12283,018.5,045.2,0.271,767.1,01.15,0.508
2016-09-11 01:29:00,1878E-3,5C000400,-0724,0824,12279,018.5,045.2,0.271,767.2,01.15,0.508
2016-09-11 01:30:00,1878E-3,5C000400,-0724,0824,12296,018.5,045.3,0.271,767.1,01.15,0.508
2016-09-11 01:31:00,1938E-3,5C000400,-0724,0824,12200,018.5,045.2,0.271,767.1,01.15,0.508
2016-09-11 01:32:00,1915E-3,5C000400,-0724,0824,12360,018.5,045.3,0.270,767.1,01.15,0.508
2016-09-11 01:33:00,1852E-3,5C000400,-0724,0823,12249,018.5,045.2,0.271,767.0,01.15,0.508
2016-09-11 01:34:00,1992E-3,5C000400,-0724,0824,12313,018.5,045.2,0.271,767.0,01.15,0.508
2016-09-11 01:35:00,1789E-3,5C000400,-0724,0824,12165,018.5,045.2,0.270,766.9,01.15,0.508
2016-09-11 01:36:00,1812E-3,5C000400,-0724,0823,12173,018.5,045.3,0.271,767.0,01.15,0.508
2016-09-11 01:37:00,1930E-3,5C000400,-0724,0824,12236,018.5,045.2,0.271,766.9,01.15,0.508
2016-09-11 01:38:00,1939E-3,5C000400,-0724,0823,12189,018.5,045.2,0.271,767.0,01.15,0.508
2016-09-11 01:39:00,1842E-3,5C000400,-0724,0823,12296,018.4,045.2,0.271,766.8,01.15,0.508
2016-09-11 01:40:00,1993E-3,5C000400,-0724,0823,12340,018.5,045.3,0.270,766.9,01.15,0.508
2016-09-11 01:41:00,1917E-3,5C000400,-0724,0823,12337,018.4,045.3,0.271,766.8,01.15,0.508
2016-09-11 01:42:00,1777E-3,5C000400,-0724,0824,12407,018.4,045.2,0.271,766.8,01.15,0.508
2016-09-11 01:43:00,1747E-3,5C000400,-0724,0823,12453,018.4,045.2,0.271,766.8,01.15,0.508
2016-09-11 01:44:00,1973E-3,5C000400,-0724,0824,12355,018.4,045.3,0.271,766.9,01.15,0.508
2016-09-11 01:45:00,1926E-3,5C000400,-0724,0826,12267,018.4,045.3,0.270,766.9,01.15,0.508
2016-09-11 01:46:00,1854E-3,5C000400,-0724,0824,12346,018.4,045.2,0.271,766.9,01.15,0.508
2016-09-11 01:47:00,1884E-3,5C000400,-0724,0824,12293,018.4,045.2,0.271,766.9,01.15,0.508
2016-09-11 01:48:00,1846E-3,5C000400,-0724,0824,12211,018.4,045.2,0.271,766.9,01.15,0.508
2016-09-11 01:49:00,1983E-3,5C000400,-0724,0823,12372,018.5,045.2,0.271,766.9,01.15,0.508
2016-09-11 01:50:00,1865E-3,5C000400,-0724,0823,12209,018.5,045.3,0.271,766.9,01.15,0.508
2016-09-11 01:51:00,1938E-3,5C000400,-0724,0823,12210,018.5,045.3,0.271,766.9,01.15,0.508
2016-09-11 01:52:00,2019E-3,5C000400,-0724,0823,11217,018.5,045.2,0.271,766.9,01.15,0.508
2016-09-11 01:53:00,1959E-3,5C000400,-0724,0823,12228,018.5,045.3,0.271,766.9,01.15,0.508
2016-09-11 01:54:00,1988E-3,5C000400,-0724,0824,12186,018.5,045.3,0.271,766.9,01.15,0.508
2016-09-11 01:55:00,1858E-3,5C000400,-0724,0824,12334,018.6,045.2,0.270,766.9,01.15,0.508
2016-09-11 01:56:00,1820E-3,5C000400,-0724,0824,12190,018.5,045.2,0.271,766.9,01.15,0.508
2016-09-11 01:57:00,1968E-3,5C000400,-0724,0823,12343,018.5,045.3,0.271,766.9,01.15,0.508
2016-09-11 01:58:00,1904E-3,5C000400,-0724,0823,12239,018.6,045.2,0.270,766.9,01.15,0.508
2016-09-11 01:59:00,1851E-3,5C000400,-0724,0823,12192,018.6,045.3,0.271,766.8,01.15,0.508
2016-09-11 02:00:00,2069E-3,5C000400,-0724,0823,12113,018.5,045.3,0.271,766.8,01.15,0.508
2016-09-11 02:01:00,1936E-3,5C000400,-0724,0824,12287,018.5,045.2,0.271,766.8,01.15,0.508
2016-09-11 02:02:00,1944E-3,5C000400,-0724,0825,12336,018.5,045.2,0.271,766.8,01.15,0.508
2016-09-11 02:03:00,1838E-3,5C000400,-0724,0824,12355,018.5,045.2,0.271,766.7,01.15,0.508
2016-09-11 02:04:00,1898E-3,5C000400,-0724,0823,12368,018.5,045.2,0.271,766.8,01.15,0.508
2016-09-11 02:05:00,1879E-3,5C000400,-0724,0824,12181,018.5,045.2,0.271,766.8,01.15,0.508
2016-09-11 02:06:00,1944E-3,5C000400,-0724,0824,12227,018.5,045.3,0.270,766.9,01.15,0.508
2016-09-11 02:07:00,1927E-3,5C000400,-0724,0824,12249,018.4,045.3,0.271,766.8,01.15,0.508
2016-09-11 02:08:00,1918E-3,5C000400,-0724,0825,12306,018.5,045.3,0.271,766.8,01.15,0.508
2016-09-11 02:09:00,1813E-3,5C000400,-0724,0824,12282,018.5,045.2,0.271,766.9,01.15,0.508
2016-09-11 02:10:00,1923E-3,5C000400,-0724,0824,12241,018.5,045.3,0.271,766.9,01.15,0.508
2016-09-11 02:11:00,1812E-3,5C000400,-0724,0823,12255,018.4,045.3,0.271,767.0,01.15,0.508
2016-09-11 02:12:00,1934E-3,5C000400,-0724,0824,12368,018.5,045.2,0.270,767.0,01.15,0.508
2016-09-11 02:13:00,1871E-3,5C000400,-0724,0824,12267,018.5,045.3,0.271,766.9,01.15,0.508
2016-09-11 02:14:00,1946E-3,5C000400,-0724,0825,12294,018.5,045.3,0.271,766.9,01.15,0.508
2016-09-11 02:15:00,1820E-3,5C000400,-0724,0824,12220,018.6,045.3,0.271,766.8,01.15,0.508
2016-09-11 02:16:00,1962E-3,5C000400,-0724,0824,12247,018.6,045.3,0.271,766.9,01.15,0.508
2016-09-11 02:17:00,1919E-3,5C000400,-0724,0824,12268,018.6,045.3,0.271,766.9,01.15,0.508
2016-09-11 02:18:00,1850E-3,5C000400,-0724,0824,12269,018.6,045.2,0.271,766.9,01.15,0.508
2016-09-11 02:19:00,1936E-3,5C000400,-0724,0823,12315,018.6,045.3,0.270,766.9,01.15,0.508
2016-09-11 02:20:00,1837E-3,5C000400,-0724,0823,12373,018.6,045.3,0.271,766.9,01.15,0.508
2016-09-11 02:21:00,1869E-3,5C000400,-0724,0823,12330,018.6,045.2,0.271,766.9,01.15,0.508
2016-09-11 02:22:00,1949E-3,5C000400,-0724,0824,12246,018.7,045.2,0.271,766.9,01.15,0.508
2016-09-11 02:23:00,1929E-3,5C000400,-0724,0825,12298,018.7,045.2,0.270,767.0,01.15,0.508
2016-09-11 02:24:00,1800E-3,5C000400,-0724,0825,12215,018.7,045.3,0.271,767.0,01.15,0.508
2016-09-11 02:25:00,1943E-3,5C000400,-0724,0823,12213,018.7,045.3,0.271,766.9,01.15,0.508
2016-09-11 02:26:00,1708E-3,5C000400,-0724,0824,12351,018.7,045.2,0.271,766.9,01.15,0.508
2016-09-11 02:27:00,1804E-3,5C000400,-0724,0823,11059,018.7,045.2,0.271,766.8,01.15,0.508
2016-09-11 02:28:00,1810E-3,5C000400,-0724,0824,12267,018.7,045.2,0.271,766.8,01.15,0.508
2016-09-11 02:29:00,1931E-3,5C000400,-0724,0824,12122,018.7,045.2,0.270,767.0,01.15,0.508
2016-09-11 02:30:00,2017E-3,5C000400,-0724,0825,12370,018.8,045.2,0.271,767.0,01.15,0.508
2016-09-11 02:31:00,1807E-3,5C000400,-0724,0823,12202,018.8,045.3,0.271,767.0,01.15,0.508
2016-09-11 02:32:00,1994E-3,5C000400,-0724,0824,12186,018.8,045.3,0.270,767.0,01.15,0.508
2016-09-11 02:33:00,1921E-3,5C000400,-0724,0823,12199,018.8,045.3,0.271,767.0,01.15,0.508
2016-09-11 02:34:00,1863E-3,5C000400,-0724,0824,12207,018.8,045.2,0.270,766.9,01.15,0.508
2016-09-11 02:35:00,1903E-3,5C000400,-0724,0823,12307,018.8,045.2,0.271,766.9,01.15,0.508
2016-09-11 02:36:00,1852E-3,5C000400,-0724,0824,12408,018.8,045.3,0.271,766.9,01.15,0.508
2016-09-11 02:37:00,1930E-3,5C000400,-0724,0824,12270,018.8,045.3,0.270,766.8,01.15,0.508
2016-09-11 02:38:00,1861E-3,5C000400,-0724,0824,12270,018.8,045.2,0.271,766.9,01.15,0.508
2016-09-11 02:39:00,1957E-3,5C000400,-0724,0824,12354,018.8,045.3,0.270,766.8,01.15,0.508
2016-09-11 02:40:00,1846E-3,5C000400,-0724,0824,12180,018.8,045.3,0.271,766.8,01.15,0.508
2016-09-11 02:41:00,1862E-3,5C000400,-0724,0824,12282,018.8,045.2,0.270,766.8,01.15,0.508
2016-09-11 02:42:00,1963E-3,5C000400,-0724,0824,11057,018.8,045.2,0.271,766.8,01.15,0.508
2016-09-11 02:43:00,1813E-3,5C000400,-0724,0823,12353,018.9,045.2,0.270,766.9,01.15,0.508
2016-09-11 02:44:00,1878E-3,5C000400,-0724,0824,12301,018.8,045.2,0.270,766.7,01.15,0.508
2016-09-11 02:45:00,1817E-3,5C000400,-0724,0825,12215,018.8,045.3,0.270,766.8,01.15,0.508
2016-09-11 02:46:00,1931E-3,5C000400,-0724,0824,12208,018.9,045.2,0.270,766.9,01.15,0.508
2016-09-11 02:47:00,1839E-3,5C000400,-0724,0825,12195,018.9,045.3,0.270,766.8,01.15,0.508
2016-09-11 02:48:00,1945E-3,5C000400,-0724,0824,12187,018.9,045.2,0.270,766.9,01.15,0.508
2016-09-11 02:49:00,2022E-3,5C000400,-0724,0823,12226,018.9,045.2,0.270,766.9,01.15,0.508
2016-09-11 02:50:00,1854E-3,5C000400,-0724,0824,12249,018.9,045.3,0.270,766.9,01.15,0.508
2016-09-11 02:51:00,1740E-3,5C000400,-0724,0824,12174,018.9,045.2,0.270,766.8,01.15,0.508
2016-09-11 02:52:00,1940E-3,5C000400,-0724,0824,12216,018.8,045.2,0.270,766.8,01.15,0.508
2016-09-11 02:53:00,1955E-3,5C000400,-0724,0824,12440,018.8,045.2,0.270,766.8,01.15,0.508
2016-09-11 02:54:00,1982E-3,5C000400,-0724,0823,12159,018.8,045.3,0.270,766.8,01.15,0.508
2016-09-11 02:55:00,1834E-3,5C000400,-0724,0824,12366,018.8,045.3,0.270,766.8,01.15,0.508
2016-09-11 02:56:00,1925E-3,5C000400,-0724,0824,12358,018.8,045.3,0.271,766.8,01.15,0.508
2016-09-11 02:57:00,1876E-3,5C000400,-0724,0823,12205,018.8,045.3,0.270,766.9,01.15,0.508
2016-09-11 02:58:00,1871E-3,5C000400,-0724,0824,12187,018.8,045.3,0.270,766.9,01.15,0.508
2016-09-11 02:59:00,1916E-3,5C000400,-0724,0824,12174,018.8,045.3,0.270,766.8,01.15,0.508
2016-09-11 03:00:00,1784E-3,5C000400,-0724,0824,12353,018.8,045.3,0.270,766.7,01.15,0.508
2016-09-11 03:01:00,1839E-3,5C000400,-0724,0824,12294,018.8,045.2,0.271,766.8,01.15,0.508
2016-09-11 03:02:00,1893E-3,5C000400,-0724,0823,12314,018.8,045.3,0.271,766.8,01.15,0.508
2016-09-11 03:03:00,1910E-3,5C000400,-0724,0824,12335,018.8,045.2,0.270,766.7,01.15,0.508
2016-09-11 03:04:00,1921E-3,5C000400,-0724,0824,12194,018.8,045.3,0.271,766.6,01.15,0.508
2016-09-11 03:05:00,1961E-3,5C000400,-0724,0824,12280,018.8,045.2,0.270,766.6,01.15,0.508
2016-09-11 03:06:00,1845E-3,5C000400,-0724,0824,12195,018.8,045.3,0.270,766.7,01.15,0.508
2016-09-11 03:07:00,1972E-3,5C000400,-0724,0824,12355,018.8,045.2,0.271,766.7,01.15,0.508
2016-09-11 03:08:00,1966E-3,5C000400,-0724,0824,12216,018.8,045.2,0.270,766.6,01.15,0.508
2016-09-11 03:09:00,1995E-3,5C000400,-0724,0824,12324,018.7,045.2,0.271,766.7,01.15,0.508
2016-09-11 03:10:00,2000E-3,5C000400,-0724,0824,12320,018.8,045.2,0.270,766.7,01.15,0.508
2016-09-11 03:11:00,1772E-3,5C000400,-0724,0824,11921,018.7,045.3,0.270,766.7,01.15,0.508
2016-09-11 03:12:00,1875E-3,5C000400,-0724,0824,12162,018.7,045.3,0.271,766.7,01.15,0.508
2016-09-11 03:13:00,1819E-3,5C000400,-0724,0824,12199,018.7,045.2,0.270,766.7,01.15,0.508
2016-09-11 03:14:00,1945E-3,5C000400,-0724,0823,12262,018.8,045.2,0.270,766.7,01.15,0.508
2016-09-11 03:15:00,1966E-3,5C000400,-0724,0824,12155,018.8,045.3,0.271,766.7,01.15,0.508
2016-09-11 03:16:00,1810E-3,5C000400,-0724,0824,12265,018.8,045.3,0.270,766.7,01.15,0.508
2016-09-11 03:17:00,1920E-3,5C000400,-0724,0824,12219,018.9,045.3,0.270,766.7,01.15,0.508
2016-09-11 03:18:00,1804E-3,5C000400,-0724,0824,12271,018.8,045.3,0.271,766.7,01.15,0.508
2016-09-11 03:19:00,1777E-3,5C000400,-0724,0824,12497,018.8,045.3,0.271,766.5,01.15,0.508
2016-09-11 03:20:00,1835E-3,5C000400,-0724,0824,12285,018.8,045.3,0.270,766.6,01.15,0.508
2016-09-11 03:21:00,1890E-3,5C000400,-0724,0824,12238,018.9,045.2,0.270,766.6,01.15,0.508
2016-09-11 03:22:00,1888E-3,5C000400,-0724,0824,12191,018.9,045.3,0.271,766.6,01.15,0.508
2016-09-11 03:23:00,1944E-3,5C000400,-0724,0823,12255,018.9,045.2,0.271,766.6,01.15,0.508
2016-09-11 03:24:00,1827E-3,5C000400,-0724,0823,12143,018.9,045.3,0.270,766.6,01.15,0.508
2016-09-11 03:25:00,1873E-3,5C000400,-0724,0825,11149,018.9,045.3,0.271,766.5,01.15,0.508
2016-09-11 03:26:00,1934E-3,5C000400,-0724,0824,12125,018.9,045.3,0.271,766.5,01.15,0.508
2016-09-11 03:27:00,1823E-3,5C000400,-0724,0824,12314,018.8,045.2,0.271,766.5,01.15,0.508
2016-09-11 03:28:00,1904E-3,5C000400,-0724,0825,12174,018.9,045.3,0.270,766.4,01.15,0.508
2016-09-11 03:29:00,1880E-3,5C000400,-0724,0824,12199,018.9,045.2,0.270,766.6,01.15,0.508
2016-09-11 03:30:00,1753E-3,5C000400,-0724,0824,12268,018.9,045.3,0.271,766.5,01.15,0.508
2016-09-11 03:31:00,1838E-3,5C000400,-0724,0824,12235,018.8,045.3,0.270,766.5,01.15,0.508
2016-09-11 03:32:00,1928E-3,5C000400,-0724,0824,12405,018.9,045.3,0.270,766.4,01.15,0.508
2016-09-11 03:33:00,1867E-3,5C000400,-0724,0824,12285,018.8,045.3,0.271,766.5,01.15,0.508
2016-09-11 03:34:00,1863E-3,5C000400,-0724,0824,12241,018.8,045.2,0.270,766.5,01.15,0.508
2016-09-11 03:35:00,1761E-3,5C000400,-0724,0824,12152,018.8,045.2,0.270,766.4,01.15,0.508
2016-09-11 03:36:00,1951E-3,5C000400,-0724,0824,12300,018.8,045.2,0.270,766.4,01.15,0.508
2016-09-11 03:37:00,1827E-3,5C000400,-0724,0823,12289,018.8,045.2,0.271,766.4,01.15,0.508
2016-09-11 03:38:00,1991E-3,5C000400,-0724,0823,12154,018.8,045.3,0.270,766.5,01.15,0.508
2016-09-11 03:39:00,1940E-3,5C000400,-0724,0823,12222,018.9,045.3,0.270,766.4,01.15,0.508
2016-09-11 03:40:00,1884E-3,5C000400,-0724,0825,12324,018.8,045.2,0.271,766.4,01.15,0.508
2016-09-11 03:41:00,1893E-3,5C000400,-0724,0824,12162,018.9,045.2,0.270,766.3,01.15,0.508
2016-09-11 03:42:00,1929E-3,5C000400,-0724,0823,12324,018.9,045.3,0.270,766.7,01.15,0.508
2016-09-11 03:43:00,1838E-3,5C000400,-0724,0825,12236,018.8,045.3,0.271,766.4,01.15,0.508
2016-09-11 03:44:00,1805E-3,5C000400,-0724,0823,12052,018.8,045.3,0.270,766.4,01.15,0.508
2016-09-11 03:45:00,2004E-3,5C000400,-0724,0824,12195,018.8,045.3,0.270,766.4,01.15,0.508
2016-09-11 03:46:00,1889E-3,5C000400,-0724,0824,12262,018.9,045.3,0.271,766.4,01.15,0.508
2016-09-11 03:47:00,1855E-3,5C000400,-0724,0823,12202,018.8,045.3,0.270,766.4,01.15,0.508
2016-09-11 03:48:00,1963E-3,5C000400,-0724,0823,12252,018.9,045.2,0.270,766.3,01.15,0.508
2016-09-11 03:49:00,1966E-3,5C000400,-0724,0823,12148,018.9,045.2,0.270,766.4,01.15,0.508
2016-09-11 03:50:00,1899E-3,5C000400,-0724,0824,12135,018.9,045.3,0.270,766.4,01.15,0.508
2016-09-11 03:51:00,1956E-3,5C000400,-0724,0825,12212,018.9,045.2,0.271,766.4,01.15,0.508
2016-09-11 03:52:00,1983E-3,5C000400,-0724,0825,12278,018.9,045.2,0.270,766.3,01.15,0.508
2016-09-11 03:53:00,1865E-3,5C000400,-0724,0824,12104,018.9,045.2,0.271,766.3,01.15,0.508
2016-09-11 03:54:00,1929E-3,5C000400,-0724,0824,12134,018.9,045.3,0.270,766.4,01.15,0.508
2016-09-11 03:55:00,1879E-3,5C000400,-0724,0824,12295,019.0,045.3,0.271,766.3,01.15,0.508
2016-09-11 03:56:00,1928E-3,5C000400,-0724,0823,12315,019.0,045.3,0.270,766.3,01.15,0.508
2016-09-11 03:57:00,1936E-3,5C000400,-0724,0823,12164,019.0,045.3,0.271,766.3,01.15,0.508
2016-09-11 03:58:00,2033E-3,5C000400,-0724,0825,12307,019.0,045.3,0.270,766.3,01.15,0.508
2016-09-11 03:59:00,1933E-3,5C000400,-0724,0824,12280,019.0,045.3,0.270,766.3,01.15,0.508
2016-09-11 04:00:00,2046E-3,5C000400,-0724,0823,12299,019.0,045.3,0.270,766.3,01.15,0.508
2016-09-11 04:01:00,1855E-3,5C000400,-0724,0824,12323,019.0,045.3,0.270,766.2,01.15,0.508
2016-09-11 04:02:00,1997E-3,5C000400,-0724,0823,12266,018.9,045.3,0.270,766.3,01.15,0.508
2016-09-11 04:03:00,1823E-3,5C000400,-0724,0824,12258,019.0,045.3,0.270,766.2,01.15,0.508
2016-09-11 04:04:00,1794E-3,5C000400,-0724,0824,12158,019.0,045.3,0.270,766.2,01.15,0.508
2016-09-11 04:05:00,1857E-3,5C000400,-0724,0824,12147,019.0,045.3,0.270,766.1,01.15,0.508
2016-09-11 04:06:00,1887E-3,5C000400,-0724,0823,12289,019.0,045.3,0.270,766.2,01.15,0.508
2016-09-11 04:07:00,1858E-3,5C000400,-0724,0824,12139,019.0,045.3,0.270,766.2,01.15,0.508
2016-09-11 04:08:00,1982E-3,5C000400,-0724,0824,12234,019.0,045.3,0.270,766.2,01.15,0.508
2016-09-11 04:09:00,1823E-3,5C000400,-0724,0824,12250,019.0,045.3,0.270,766.0,01.15,0.508
2016-09-11 04:10:00,1808E-3,5C000400,-0724,0824,12228,019.0,045.2,0.270,766.0,01.15,0.508
2016-09-11 04:11:00,1921E-3,5C000400,-0724,0823,12215,019.1,045.3,0.270,766.1,01.15,0.508
2016-09-11 04:12:00,1829E-3,5C000400,-0724,0824,12302,019.1,045.3,0.270,766.0,01.15,0.508
2016-09-11 04:13:00,2006E-3,5C000400,-0724,0824,12227,019.1,045.2,0.270,766.0,01.15,0.508
2016-09-11 04:14:00,1914E-3,5C000400,-0724,0824,12401,019.0,045.2,0.270,766.1,01.15,0.508
2016-09-11 04:15:00,1959E-3,5C000400,-0724,0824,12203,019.1,045.3,0.270,766.1,01.15,0.508
2016-09-11 04:16:00,1938E-3,5C000400,-0724,0824,12160,019.1,045.3,0.270,766.0,01.15,0.508
2016-09-11 04:17:00,2017E-3,5C000400,-0724,0824,12314,019.1,045.2,0.270,766.1,01.15,0.508
2016-09-11 04:18:00,1850E-3,5C000400,-0724,0824,12294,019.1,045.3,0.270,766.1,01.15,0.508
2016-09-11 04:19:00,1819E-3,5C000400,-0724,0823,12394,019.2,045.3,0.270,766.1,01.15,0.508
2016-09-11 04:20:00,1951E-3,5C000400,-0724,0823,12333,019.2,045.3,0.270,766.2,01.15,0.508